User: anonymous   Login
Location: Unspecified
(0.0000°N, 0.0000°E)
Time: 19:02:33
(UTC+00:00)
Language:

APRIZESAT 5 - Orbit

View from above orbital plane
View from above orbital plane
View from above satellite
View from above satellite

Ground track
Ground track

The orbit data is extracted from the following two-line orbital elements,

1 37792U 11044E   17084.94419767 +.00000121 +00000-0 +25916-4 0  9996
2 37792 098.3227 225.5948 0057527 316.9824 042.6893 14.75101678301449
Epoch (UTC): 25 March 2017 22:39:38
Eccentricity: 0.0057527
inclination: 98.3227°
perigee height: 604 km
apogee height: 685 km
right ascension of ascending node: 225.5948°
argument of perigee: 316.9824°
revolutions per day: 14.75101678
mean anomaly at epoch: 42.6893°
orbit number at epoch: 30144

The dashed part of the orbit path shows where the satellite is in the earth's shadow,  

DLR